Orbital Elements
Epoch 2007 Jan. 20.0 TT = JDT 2454120.5
T 2007 Feb. 2.78501 TT Rudenko
q 2.4191239 (2000.0) P Q
n 0.17579110 Peri. 300.44883 +0.88078610 -0.43319143
a 3.1560082 Node 85.81895 +0.47286093 +0.78346277
e 0.2334862 Incl. 11.05316 +0.02486725 +0.44556848
P 5.61
From 182 observations 2001 Dec. 9-2017 Aug. 17, mean residual 0".4.
|